STARLINK-35721, 67046

Orbit data source: Space-Track

STARLINK-35721, 67046 is a payload satellite owned by SpaceX/Seattle (US) in LEO that was launched on Thu, 11 Dec 2025 UTC via an FALCON 9 launch vehicle from the Air Force Eastern Test Range (AFETR). Payload-class satellites include a variety of spacecraft equipped with specific instruments for various scientific and technological missions. These include communications satellites like Starlink; space stations such as the ISS; scientific satellites like the Hubble; Earth observation satellites from companies like Planet Labs, Umbra, and HawkEye 360; GPS; miniature CubeSats for education and research; and military/defense satellites.

Loading next visibility...
Identifier
67046, 2025-294S
Orbit
LEO
Country
Flag of USUS
Related business
Manufacturer
SpaceX/Seattle
Mission
Operational Commercial Communications
Bus & Motor
STARLINK V2MO, Unknown motor
Mass
575 kg wet, ~530 kg dry
Launch date (UTC)
2025-12-11 (6 months ago)
Launch vehicle
FALCON 9
Launch site
Air Force Eastern Test Range (AFETR)
Object type
Payload
Rocket body
Debris
Shape & HBR
Box + 2 Pan, 17.7 m
Radar Cross Section
36.964 m², Large (>1 m²)

Expand to show TLE details & history
Last TLE update: 2 days ago

TLE from 2 days ago
0 STARLINK-35721
1 67046U 25294S   26170.34364051  .00009614  00000-0  35839-3 0  9998
2 67046  42.9987 184.1781 0001125 271.2798  88.7925 15.27584935 30347
Epoch: 2026-06-19T08:14Z
TLE epoch observation values (Epoch: 2026-06-19T08:14:50.540Z)
Latitude
0.00002°
Longitude
152.89356°
Altitude
482.793 km
Speed
7.626 km/s
True Right ascension
12h 16m 42s
True Declination
0° 00' 00"
Sunlit
Object was in daylight at epoch
Visualization orbit readout
Latitude
Unknown
Longitude
Unknown
Altitude
Unknown
Speed
Unknown
Apparent Right ascension
Unknown
Apparent Declination
Unknown
Sunlit
N/A
Visualization observer readout
Local Sidereal Time
07:15:07
Azimuth
Unknown
Elevation
Unknown
Doppler factor
Unknown
Orbital elements
Apogee altitude
485.752 km
Perigee altitude
484.208 km
Semi-major axis
6,863.117 km
Eccentricity
0.00011
Inclination
42.9987°
RAAN
184.1781°
Arg. of periapsis
271.2798°
True anomaly
88.80539°
Mean anomaly
88.7925°
Eccentric anomaly
88.79894°
Mean motion
3.81734 °/min
Orbital period
94.31 mins
BSTAR
0.00035839
Loading maneuver chart data...
Computing Atmospheric mass density...
Loading historical data...
Loading historical data...
Loading historical data...
Loading historical data...
Loading historical data...
Loading historical data...
Loading historical data...

Documentation

Showing up to 5 results
|